STARLINK-30096 (56286 NORAD) Tracking and Keplerian Element Data

This shows tracking and keplerian element data for the satellite.

Feedback or suggestion? Click here.




ElementValue
Catalog56286
NameSTARLINK-30096
Epoch Orbit406
Epoch Day127.24688911
Epoch Year2023
RAAN93.8872
Inclination42.9964
Eccentricity0.0006257
Argument of Perigee176.7522
Mean Anonmoly315.6857
Mean Motion16.01281418
Decay Rate0.01395517
L11 56286U 23056A 23127.24688911 .01395517 10818-2 24656-2 0 9993
L22 56286 42.9964 93.8872 0006257 176.7522 315.6857 16.01281418 4067



Live tracking and technical data element details for STARLINK-30096 (NORAD 56286). STARLINK-30096 can be tracked NOW for your location showing map with azimuth and elevation plus other details from your city location.







IsCatalogInMostPopularTable: catalog: 56286, numindb: 4
Update: records affected: 1



GetName: 56286 STARLINK-30096

Hit Count: updated at: Wed, 07 Jun 2023 09:37:06 GMT